FW2543 Weather Reports


time (UTC)temp
F
wind
direction
speed
knots
gust
knots
rain 1hr
in
rain 24hr
in
rain mn
in
humidity
%
barometer
mb
20260507015358 56 14 9.6 29.5 0.00 0.00 0.00 1 1018.4
20260507015142 56 62 13.9 29.5 0.00 0.00 0.00 1 1018.4
20260507014359 57 152 7.0 25.2 0.00 0.00 0.00 1 1018.4
20260507014145 57 254 7.8 25.2 0.00 0.00 0.00 1 1018.4
20260507013357 57 274 6.1 30.4 0.00 0.00 0.00 1 1018.4
20260507012857 57 6 7.8 30.4 0.00 0.00 0.00 1 1018.4
20260507012356 57 278 7.8 24.3 0.00 0.00 0.00 1 1018.3
20260507012144 57 118 5.2 20.0 0.00 0.00 0.00 1 1018.3
20260507011356 57 0 6.1 29.5 0.00 0.00 0.00 1 1018.2
20260507010855 57 0 13.9 29.5 0.00 0.00 0.00 1 1018.4
20260507010355 58 0 6.1 24.3 0.00 0.00 0.00 1 1018.3
20260507005857 58 276 7.8 25.2 0.00 0.00 0.00 1 1018.3
20260507005356 58 340 10.4 25.2 0.00 0.00 0.00 1 1018.3
20260507004855 58 192 8.7 24.3 0.00 0.00 0.00 1 1018.4
20260507004355 58 275 7.8 22.6 0.00 0.00 0.00 1 1018.3
20260507003856 58 289 7.0 27.8 0.00 0.00 0.00 1 1018.3
20260507003355 58 337 8.7 28.7 0.00 0.00 0.00 1 1018.3
20260507002854 59 295 10.4 28.7 0.00 0.00 0.00 1 1018.4
20260507002355 59 338 7.0 26.1 0.00 0.00 0.00 1 1018.4
20260507001855 59 275 8.7 26.9 0.00 0.00 0.00 1 1018.3
20260507001357 58 272 8.7 26.9 0.00 0.00 0.00 1 1018.4
20260507000857 59 262 16.5 26.1 0.00 0.00 0.00 1 1018.4
20260507000725 60 266 8.7 20.0 0.00 3.84 0.00 1 1018.6
20260507000719 60 0 8.7 20.0 0.00 3.84 0.00 1 1018.5
20260506235355 60 165 7.8 24.3 0.00 3.84 0.00 1 1018.5
20260506234855 60 278 9.6 24.3 0.00 3.84 0.00 1 1018.5
20260506234356 60 216 7.0 24.3 0.00 3.84 0.00 1 1018.6
20260506233856 60 286 8.7 24.3 0.00 3.84 0.00 1 1018.6
20260506233354 60 329 6.1 20.9 0.00 3.84 0.00 1 1018.6
20260506232857 60 0 6.1 23.5 0.00 3.84 0.00 1 1018.6
20260506232355 60 157 7.8 23.5 0.00 3.84 0.00 1 1018.7
20260506231854 61 290 6.1 19.1 0.00 3.84 0.00 1 1018.7
20260506231354 61 259 5.2 26.1 0.00 3.84 0.00 1 1018.6
20260506230853 61 283 10.4 26.1 0.00 3.84 0.00 1 1018.7
20260506230355 61 300 8.7 24.3 0.00 3.84 0.00 1 1018.7
20260506225854 61 324 6.1 24.3 0.00 3.84 0.00 1 1018.8
20260506225355 61 278 7.0 24.3 0.00 3.84 0.00 1 1018.8
20260506224854 61 295 7.0 20.0 0.00 3.84 0.00 1 1018.8
20260506224641 61 37 6.1 26.1 0.00 3.84 0.00 1 1018.9
20260506223853 61 299 7.8 26.1 0.00 3.84 0.00 1 1019.1
20260506223354 61 268 10.4 24.3 0.00 3.84 0.00 1 1019.2
20260506222854 61 293 8.7 25.2 0.00 3.84 0.00 1 1019.2
20260506222355 61 286 7.8 25.2 0.00 3.84 0.00 1 1019.3
20260506221855 62 286 8.7 25.2 0.00 3.84 0.00 1 1019.4
20260506221352 62 10 7.8 20.0 0.00 3.84 0.00 1 1019.4
20260506220854 62 237 5.2 20.0 0.00 3.84 0.00 1 1019.4
20260506220352 63 278 7.0 23.5 0.00 3.84 0.00 1 1019.5
20260506215853 63 234 7.0 23.5 0.00 3.84 0.00 1 1019.5
20260506215353 63 264 8.7 22.6 0.00 3.84 0.00 1 1019.6
20260506214852 63 276 7.8 22.6 0.00 3.84 0.00 1 1019.7
20260506214352 64 224 7.8 22.6 0.00 3.84 0.00 1 1019.7
20260506213852 63 118 6.1 20.0 0.00 3.84 0.00 1 1019.7
20260506213351 64 83 9.6 20.0 0.00 3.84 0.00 1 1019.6
20260506212852 64 250 5.2 20.9 0.00 3.84 0.00 1 1019.8
20260506212353 64 285 7.8 20.9 0.00 3.84 0.00 1 1019.7
20260506211853 64 34 6.1 17.4 0.00 3.84 0.00 1 1019.7
20260506211352 64 152 7.0 17.4 0.00 3.84 0.00 1 1019.7
20260506210852 64 255 4.3 15.6 0.00 3.84 0.00 1 1019.7
20260506210351 64 261 4.3 17.4 0.00 3.84 0.00 1 1019.7
20260506205852 64 221 8.7 17.4 0.00 3.84 0.00 1 1019.7
20260506205349 63 282 3.5 18.2 0.00 3.84 0.00 1 1019.8
20260506204852 63 274 5.2 18.2 0.00 3.84 0.00 1 1019.9
20260506204351 64 0 7.0 18.2 0.00 3.84 0.00 1 1019.8
20260506203851 64 17 6.1 15.6 0.00 3.84 0.00 1 1019.8
20260506203351 64 114 4.3 15.6 0.00 3.84 0.00 1 1019.9
20260506202850 64 107 5.2 15.6 0.00 3.84 0.00 1 1020.0
20260506202350 64 244 6.1 20.0 0.00 3.84 0.00 1 1020.0
20260506201852 64 347 7.8 20.0 0.00 3.84 0.00 1 1020.0
20260506201352 64 274 4.3 17.4 0.00 3.84 0.00 1 1020.1
20260506200851 64 244 7.8 17.4 0.00 3.84 0.00 1 1020.2
20260506200640 64 276 7.0 16.5 0.00 3.84 0.00 1 1020.2
20260506195850 66 261 7.8 16.5 0.00 3.84 0.00 1 1020.3
20260506195350 66 258 2.6 15.6 0.00 3.84 0.00 1 1020.3
20260506194850 67 34 3.5 12.2 0.00 3.84 0.00 1 1020.3
20260506194350 67 329 3.5 12.2 0.00 3.84 0.00 1 1020.4
20260506193849 66 314 2.6 10.4 0.00 3.84 0.00 1 1020.4
20260506193350 66 265 3.5 13.9 0.00 3.84 0.00 1 1020.3
20260506192850 65 313 5.2 13.9 0.00 3.84 0.00 1 1020.6
20260506192350 65 354 5.2 13.0 0.00 3.84 0.00 1 1020.4
20260506191848 65 90 3.5 13.9 0.00 3.84 0.00 1 1020.7
20260506191423 67 244 7.8 14.8 0.00 3.84 0.00 1 1020.7
20260506191411 65 330 3.5 14.8 0.00 3.84 0.00 1 1020.6
20260506190639 67 0 1.7 10.4 0.00 3.84 0.00 1 1020.7
20260506185848 66 274 3.5 10.4 0.00 3.84 0.00 1 1020.7
20260506185348 66 268 5.2 10.4 0.00 3.84 0.00 1 1020.7
20260506184849 66 110 3.5 10.4 0.00 3.84 0.00 1 1020.7
20260506184350 65 59 1.7 8.7 0.00 3.84 0.00 1 1020.6
20260506183848 64 106 2.6 11.3 0.00 3.84 0.00 1 1020.7
20260506183348 64 18 1.7 11.3 0.00 3.84 0.00 1 1020.8
20260506182849 63 298 2.6 10.4 0.00 3.84 0.00 1 1020.7
20260506182347 62 238 3.5 13.9 0.00 3.84 0.00 1 1020.8
20260506182132 62 235 5.2 13.9 0.00 3.84 0.00 1 1020.8
20260506181348 62 241 7.8 12.2 0.00 3.84 0.00 1 1020.7
20260506180847 62 336 3.5 11.3 0.00 3.84 0.00 1 1020.7
20260506180347 61 282 3.5 11.3 0.00 3.84 0.00 1 1020.7
20260506175847 62 223 5.2 11.3 0.00 3.84 0.00 1 1020.6
20260506175348 62 0 5.2 11.3 0.00 3.84 0.00 1 1020.6
20260506174848 62 216 5.2 11.3 0.00 3.84 0.00 1 1020.7
20260506174348 62 324 4.3 11.3 0.00 3.84 0.00 1 1020.4
20260506173847 62 303 1.7 5.2 0.00 3.84 0.00 1 1020.4
20260506173347 62 265 1.7 7.8 0.00 3.84 0.00 1 1020.6
20260506172848 62 345 2.6 7.8 0.00 3.84 0.00 1 1020.4
20260506172346 61 306 1.7 8.7 0.00 3.85 0.00 1 1020.6
20260506172131 61 350 4.3 9.6 0.00 3.85 0.00 1 1020.6
20260506171634 61 341 3.5 9.6 0.00 3.85 0.00 1 1020.7
20260506170921 61 268 1.7 10.4 0.00 3.85 0.00 1 1020.8
20260506170910 61 281 0.9 6.1 0.00 3.85 0.00 1 1020.7
20260506165845 61 51 1.7 10.4 0.00 3.85 0.00 1 1020.6
20260506165346 61 348 3.5 9.6 0.00 3.85 0.00 1 1020.7
20260506164845 61 258 6.1 9.6 0.00 3.85 0.00 1 1020.7
20260506164345 62 185 2.6 7.8 0.00 3.85 0.00 1 1020.7
20260506163846 62 241 4.3 7.8 0.00 3.85 0.00 1 1020.7
20260506163345 62 87 2.6 5.2 0.00 3.85 0.00 1 1020.6
20260506162846 61 333 1.7 5.2 0.00 3.85 0.00 1 1020.6
20260506162345 61 13 2.6 5.2 0.00 3.85 0.00 1 1020.6
20260506161845 61 227 0.9 5.2 0.00 3.85 0.00 1 1020.7
20260506161345 60 59 0.9 7.8 0.00 3.85 0.00 1 1020.7
20260506160844 60 214 0.9 7.8 0.00 3.85 0.00 1 1020.7
20260506160345 60 230 2.6 6.1 0.00 3.85 0.00 1 1020.6
20260506155846 59 250 2.6 6.1 0.00 3.85 0.00 1 1020.4
20260506155344 59 8 1.7 3.5 0.00 3.85 0.00 1 1020.6
20260506154844 58 250 0.9 5.2 0.00 3.85 0.00 1 1020.6
20260506154345 58 320 1.7 5.2 0.00 3.85 0.00 1 1020.7
20260506153844 57 330 0.9 4.3 0.00 3.85 0.00 1 1020.6
20260506153345 57 340 0.9 3.5 0.00 3.85 0.00 1 1020.6
20260506152844 57 265 0.0 3.5 0.00 3.85 0.00 1 1020.6
20260506152344 57 321 0.9 4.3 0.00 3.85 0.00 1 1020.6
20260506151843 56 34 0.9 5.2 0.00 3.85 0.00 1 1020.6
20260506151424 56 312 1.7 5.2 0.00 3.85 0.00 1 1020.4
20260506151412 56 344 1.7 5.2 0.00 3.85 0.00 1 1020.6
20260506150343 55 330 1.7 5.2 0.00 3.85 0.00 1 1020.4
20260506150131 55 207 0.9 4.3 0.00 3.85 0.00 1 1020.4
20260506145629 55 286 1.7 6.1 0.00 3.85 0.00 1 1020.4
20260506144844 54 320 2.6 7.8 0.00 3.85 0.00 1 1020.3
20260506144344 54 290 1.7 7.8 0.00 3.85 0.00 1 1020.3
20260506143844 54 32 0.9 6.1 0.00 3.85 0.00 1 1020.3
20260506143344 54 323 1.7 9.6 0.00 3.85 0.00 1 1020.3
20260506142844 54 45 3.5 9.6 0.00 3.85 0.00 1 1020.2
20260506142343 54 42 1.7 9.6 0.00 3.85 0.00 1 1020.1
20260506141842 54 243 2.6 12.2 0.00 3.85 0.00 1 1020.0
20260506141341 54 259 3.5 12.2 0.00 3.85 0.00 1 1020.0
20260506140842 54 0 2.6 8.7 0.00 3.85 0.00 1 1020.0
20260506140341 54 345 3.5 9.6 0.00 3.85 0.00 1 1019.9
20260506135842 54 0 2.6 9.6 0.00 3.85 0.00 1 1019.9
20260506135341 54 51 0.9 9.6 0.00 3.85 0.00 1 1019.8
20260506134842 53 27 3.5 9.6 0.00 3.85 0.00 1 1019.7
20260506134341 53 268 3.5 7.8 0.00 3.85 0.00 1 1019.7
20260506134127 53 35 2.6 8.7 0.00 3.85 0.00 1 1019.6
20260506133341 53 283 2.6 10.4 0.00 3.85 0.00 1 1019.7
20260506133202 53 309 1.7 8.7 0.00 3.85 0.00 1 1019.6
20260506133156 53 350 3.5 10.4 0.00 3.85 0.00 1 1019.7
20260506131840 53 120 2.6 8.7 0.00 3.85 0.00 1 1019.7
20260506131341 53 272 2.6 8.7 0.00 3.85 0.00 1 1019.6
20260506130841 53 295 0.9 7.8 0.00 3.85 0.00 1 1019.6
20260506130340 53 123 3.5 8.7 0.00 3.85 0.00 1 1019.5
20260506125840 54 92 3.5 8.7 0.00 3.85 0.00 1 1019.5
20260506125342 54 278 2.6 8.7 0.00 3.85 0.00 1 1019.5
20260506124914 54 121 2.6 8.7 0.00 3.85 0.00 1 1019.5
20260506124905 54 0 2.6 7.8 0.00 3.85 0.00 1 1019.5
20260506123841 54 117 2.6 8.7 0.00 3.85 0.00 1 1019.4
20260506123342 54 307 1.7 6.1 0.00 3.85 0.00 1 1019.4
20260506122839 54 252 1.7 6.1 0.00 3.85 0.00 1 1019.3
20260506122624 54 330 1.7 8.7 0.00 3.85 0.00 1 1019.4
20260506122208 53 162 1.7 7.8 0.00 3.85 0.00 1 1019.2
20260506122203 54 266 2.6 8.7 0.00 3.85 0.00 1 1019.4
20260506120840 53 265 2.6 7.8 0.00 3.85 0.00 1 1019.3
20260506120339 53 316 3.5 7.8 0.00 3.85 0.00 1 1019.2
20260506115840 53 175 2.6 6.1 0.00 3.85 0.00 1 1019.2
20260506115340 53 90 0.9 7.8 0.00 3.85 0.00 1 1019.2
20260506114839 53 23 1.7 9.6 0.00 3.85 0.00 1 1019.3
20260506114338 53 0 2.6 10.4 0.00 3.85 0.00 1 1019.2
20260506113840 53 265 3.5 10.4 0.00 3.85 0.00 1 1019.1
20260506113338 53 0 3.5 10.4 0.00 3.85 0.00 1 1019.1
20260506112839 53 97 1.7 10.4 0.00 3.85 0.00 1 1019.1
20260506112339 53 169 2.6 8.7 0.00 3.85 0.00 1 1019.0
20260506111838 53 49 1.7 8.7 0.00 3.85 0.00 1 1019.0
20260506111338 53 0 2.6 8.7 0.00 3.85 0.00 1 1018.9
20260506110838 53 16 2.6 11.3 0.00 3.85 0.00 1 1019.0
20260506110339 53 0 5.2 11.3 0.00 3.85 0.00 1 1018.9
20260506105838 53 8 3.5 10.4 0.00 3.85 0.00 1 1018.9
20260506105626 53 220 2.6 10.4 0.00 3.85 0.00 1 1018.9
20260506104835 53 120 1.7 10.4 0.00 3.85 0.00 1 1018.9
20260506104335 53 197 3.5 8.7 0.00 3.85 0.00 1 1018.8
20260506103833 53 296 2.6 9.6 0.00 3.85 0.00 1 1018.8
20260506103332 53 281 4.3 10.4 0.00 3.85 0.00 1 1018.8
20260506102831 53 141 3.5 11.3 0.00 3.85 0.00 1 1018.8
20260506102331 53 269 4.3 11.3 0.00 3.85 0.00 1 1018.8
20260506101832 53 0 3.5 10.4 0.00 3.85 0.00 1 1018.7
20260506101333 53 62 3.5 9.6 0.00 3.85 0.00 1 1018.7
20260506100831 53 354 4.3 9.6 0.00 3.85 0.00 1 1018.7
20260506100331 53 327 2.6 6.1 0.00 3.85 0.00 1 1018.7
20260506095832 53 317 1.7 9.6 0.00 3.85 0.00 1 1018.8
20260506095330 53 0 2.6 9.6 0.00 3.85 0.00 1 1018.7
20260506094830 53 281 3.5 8.7 0.00 3.85 0.00 1 1018.8
20260506094329 53 296 3.5 7.8 0.00 3.85 0.00 1 1018.8
20260506093825 53 333 1.7 6.1 0.00 3.85 0.00 1 1018.8
20260506093319 53 0 1.7 9.6 0.00 3.86 0.00 1 1018.8
20260506092818 53 296 3.5 9.6 0.00 3.86 0.00 1 1018.8
20260506092313 54 282 2.6 8.7 0.00 3.86 0.00 1 1018.7
20260506091809 54 254 3.5 10.4 0.00 3.86 0.00 1 1018.6
20260506091307 53 272 3.5 10.4 0.00 3.86 0.00 1 1018.6
20260506090804 54 0 2.6 10.4 0.00 3.86 0.00 1 1018.6
20260506090304 54 0 3.5 10.4 0.00 3.86 0.00 1 1018.7
20260506090134 54 338 2.6 11.3 0.00 3.86 0.00 1 1018.6
20260506090129 54 337 4.3 10.4 0.00 3.86 0.00 1 1018.6
20260506084803 54 0 3.5 11.3 0.00 3.86 0.00 1 1018.7
20260506084556 54 0 3.5 12.2 0.00 3.86 0.00 1 1018.7
20260506084047 54 265 3.5 12.2 0.00 3.86 0.00 1 1018.7
20260506083305 54 4 3.5 9.6 0.00 3.86 0.00 1 1018.7
20260506082804 54 285 3.5 9.6 0.00 3.86 0.00 1 1018.7
20260506082305 54 286 3.5 9.6 0.00 3.87 0.00 1 1018.8
20260506081803 54 18 3.5 9.6 0.00 3.87 0.00 1 1018.8
20260506081303 54 241 2.6 8.7 0.00 3.87 0.00 1 1018.8
20260506080805 54 296 1.7 9.6 0.00 3.88 0.00 1 1018.9
20260506080303 54 0 1.7 10.4 0.00 3.88 0.00 1 1018.8
20260506073305 53 207 3.5 11.3 0.00 3.90 0.00 1 1018.5
20260506072804 53 1 4.3 11.3 0.00 3.90 0.00 1 1018.6
20260506072551 53 265 3.5 11.3 0.00 3.90 0.00 1 1018.5
20260506071804 53 321 4.3 11.3 0.00 3.91 0.00 1 1018.5
20260506071553 54 278 6.1 11.3 0.00 3.91 0.00 1 1018.4
20260506070804 54 97 0.9 11.3 0.00 3.91 0.00 1 1018.5
20260506070235 54 0 4.3 10.4 0.00 3.91 0.00 1 1018.4
20260506062229 54 282 5.2 10.4 0.00 3.91 3.91 1 1018.1
20260506061729 54 121 2.6 11.3 0.00 3.91 3.91 1 1018.1
20260506061229 54 327 2.6 13.9 0.00 3.91 3.91 1 1018.1
20260506060730 54 278 2.6 13.9 0.00 3.92 3.91 1 1018.1
20260506060229 54 0 1.7 11.3 0.00 3.92 3.91 1 1018.0
20260506051228 55 0 3.5 12.2 0.00 3.93 3.91 1 1017.8
20260506050728 55 320 6.1 13.9 0.00 3.94 3.91 1 1017.8
20260506050227 55 264 5.2 13.9 0.00 3.94 3.91 1 1017.8
20260506044727 55 18 3.5 13.0 0.00 3.95 3.91 1 1017.7
20260506044517 55 31 2.6 13.0 0.00 3.95 3.91 1 1017.6
20260506043728 55 282 3.5 14.8 0.00 3.95 3.91 1 1017.6
20260506043227 55 293 4.3 14.8 0.00 3.95 3.91 1 1017.6
20260506042726 55 303 4.3 12.2 0.00 3.95 3.91 1 1017.5
20260506042228 54 23 3.5 13.9 0.00 3.95 3.91 1 1017.4
20260506042014 54 14 4.3 13.9 0.00 3.95 3.91 1 1017.3
20260506041226 55 327 4.3 12.2 0.00 3.95 3.91 1 1017.3
20260506040726 55 0 5.2 14.8 0.00 3.95 3.91 1 1017.1
20260506040513 55 0 2.6 14.8 0.00 3.95 3.91 1 1017.0
20260506035726 55 183 3.5 11.3 0.00 3.95 3.91 1 1016.9
20260506035310 55 259 3.5 13.0 0.00 3.95 3.91 1 1016.8
20260506035257 55 13 4.3 13.0 0.00 3.95 3.91 1 1016.9
20260506034226 55 289 4.3 14.8 0.00 3.95 3.91 1 1016.8
20260506033727 55 0 4.3 14.8 0.00 3.95 3.91 1 1016.6
20260506033226 55 238 6.1 16.5 0.00 3.95 3.91 1 1016.6
20260506032725 55 142 8.7 16.5 0.00 3.95 3.91 1 1016.6
20260506032226 55 231 9.6 15.6 0.00 3.95 3.91 1 1016.5
20260506031726 55 24 3.5 13.9 0.00 3.95 3.91 1 1016.5
20260506031229 55 247 4.3 13.9 0.00 3.95 3.91 1 1016.4
20260506030726 55 274 4.3 13.9 0.00 3.95 3.91 1 1016.4
20260506030226 55 264 6.1 16.5 0.00 3.95 3.91 1 1016.3
20260506025726 55 0 5.2 17.4 0.00 3.95 3.91 1 1016.3
20260506025226 56 320 4.3 17.4 0.00 3.95 3.91 1 1016.1
20260506024726 56 197 5.2 18.2 0.00 3.95 3.91 1 1016.2
20260506024512 56 130 4.3 18.2 0.00 3.95 3.91 1 1016.2
20260506023724 56 264 7.8 16.5 0.00 3.95 3.91 1 1016.2
20260506023301 56 258 7.8 20.9 0.00 3.95 3.91 1 1016.1
20260506023248 56 250 5.2 20.9 0.00 3.95 3.91 1 1016.1
20260506022225 56 264 4.3 18.2 0.00 3.95 3.91 1 1016.1
20260506021725 56 230 7.8 18.2 0.00 3.95 3.91 1 1016.0
20260506021511 56 96 4.3 17.4 0.00 3.95 3.91 1 1015.9
20260506020723 56 13 7.8 19.1 0.00 3.95 3.91 1 1015.8
20260506020225 56 250 8.7 19.1 0.00 3.95 3.91 1 1015.9
20260506015724 57 265 8.7 19.1 0.00 3.95 3.91 1 1015.9